• en France
  • Liste des pays
  • À 7 jours
  • Température de l'eau
  • Carte satellitaire
  • Carte météo
  • Widgets météo
  • user-avatar
    Se connecter

    Météo par heure à Mitu

    Ce jour, 18 Décembre, Lundi

    Heure Température Précipitation Vent Pression Humidité
    00:00 +21°C° 0 mm 0 m/s 738 mmHg 97%
    01:00 +21°C° 0 mm 0 m/s 738 mmHg 98%
    02:00 +21°C° 0,1 mm 0 m/s 738 mmHg 98%
    03:00 +21°C° 0,1 mm 0 m/s 738 mmHg 98%
    04:00 +21°C° 0,1 mm 0 m/s 737 mmHg 98%
    05:00 +22°C° 0 mm 0 m/s 738 mmHg 97%
    06:00 +22°C° 0 mm 0 m/s 738 mmHg 96%
    07:00 +23°C° 0 mm 0 m/s 739 mmHg 95%
    08:00 +27°C° 0,4 mm 1 m/s 739 mmHg 87%
    09:00 +28°C° 0,4 mm 1 m/s 739 mmHg 79%
    10:00 +30°C° 0,4 mm 2 m/s 739 mmHg 71%
    11:00 +31°C° 0,6 mm 2 m/s 738 mmHg 65%
    12:00 +34°C° 0,6 mm 2 m/s 738 mmHg 59%
    13:00 +35°C° 0,6 mm 2 m/s 737 mmHg 53%
    14:00 +33°C° 0,1 mm 1 m/s 736 mmHg 54%
    15:00 +33°C° 0,1 mm 1 m/s 736 mmHg 55%
    16:00 +33°C° 0,1 mm 1 m/s 735 mmHg 56%
    17:00 +31°C° 0,1 mm 1 m/s 736 mmHg 63%
    18:00 +29°C° 0,1 mm 1 m/s 736 mmHg 69%
    19:00 +26°C° 0,1 mm 0 m/s 737 mmHg 76%
    20:00 +25°C° 0,6 mm 0 m/s 737 mmHg 80%
    21:00 +24°C° 0,6 mm 0 m/s 738 mmHg 84%
    22:00 +23°C° 0,6 mm 0 m/s 739 mmHg 88%
    23:00 +23°C° 0,2 mm 0 m/s 738 mmHg 90%

    Demain, 19 Décembre, Mardi

    Heure Température Précipitation Vent Pression Humidité
    00:00 +23°C° 0,2 mm 0 m/s 738 mmHg 92%
    01:00 +22°C° 0,2 mm 0 m/s 738 mmHg 94%
    02:00 +22°C° 0,2 mm 0 m/s 738 mmHg 95%
    03:00 +22°C° 0,2 mm 0 m/s 738 mmHg 96%
    04:00 +21°C° 0,2 mm 0 m/s 737 mmHg 97%
    05:00 +22°C° 0 mm 0 m/s 738 mmHg 96%
    06:00 +22°C° 0 mm 0 m/s 738 mmHg 95%
    07:00 +23°C° 0 mm 0 m/s 739 mmHg 94%
    08:00 +27°C° 0 mm 1 m/s 739 mmHg 80%
    09:00 +30°C° 0 mm 2 m/s 739 mmHg 66%
    10:00 +32°C° 0 mm 2 m/s 740 mmHg 52%
    11:00 +34°C° 0 mm 2 m/s 739 mmHg 50%
    12:00 +35°C° 0 mm 2 m/s 738 mmHg 47%
    13:00 +36°C° 0 mm 2 m/s 737 mmHg 44%
    14:00 +35°C° 0 mm 2 m/s 736 mmHg 49%
    15:00 +33°C° 0 mm 1 m/s 735 mmHg 54%
    16:00 +32°C° 0 mm 1 m/s 735 mmHg 59%
    17:00 +31°C° 0 mm 1 m/s 735 mmHg 62%
    18:00 +28°C° 0 mm 0 m/s 736 mmHg 66%
    19:00 +26°C° 0 mm 0 m/s 736 mmHg 70%
    20:00 +26°C° 0,1 mm 0 m/s 737 mmHg 74%
    21:00 +25°C° 0,1 mm 0 m/s 737 mmHg 79%
    22:00 +24°C° 0,1 mm 0 m/s 738 mmHg 83%
    23:00 +24°C° 0,2 mm 0 m/s 738 mmHg 85%

    Après-demain, 20 Décembre, Mercredi

    Heure Température Précipitation Vent Pression Humidité
    00:00 +23°C° 0,2 mm 0 m/s 737 mmHg 87%
    01:00 +23°C° 0,2 mm 0 m/s 737 mmHg 90%
    02:00 +22°C° 0,3 mm 0 m/s 737 mmHg 91%
    03:00 +22°C° 0,3 mm 0 m/s 737 mmHg 93%
    04:00 +22°C° 0,3 mm 0 m/s 737 mmHg 95%
    05:00 +22°C° 0,2 mm 0 m/s 737 mmHg 94%
    06:00 +23°C° 0,2 mm 0 m/s 738 mmHg 93%
    07:00 +23°C° 0,2 mm 0 m/s 738 mmHg 91%
    08:00 +25°C° 0,6 mm 0 m/s 738 mmHg 87%
    09:00 +28°C° 0,6 mm 1 m/s 739 mmHg 82%
    10:00 +29°C° 0,6 mm 1 m/s 739 mmHg 78%
    11:00 +31°C° 0,4 mm 1 m/s 738 mmHg 71%
    12:00 +32°C° 0,4 mm 1 m/s 737 mmHg 65%
    13:00 +33°C° 0,4 mm 1 m/s 736 mmHg 58%
    14:00 +33°C° 0,4 mm 1 m/s 736 mmHg 61%
    15:00 +32°C° 0,4 mm 1 m/s 735 mmHg 63%
    16:00 +32°C° 0,4 mm 1 m/s 734 mmHg 66%
    17:00 +30°C° 0,3 mm 1 m/s 735 mmHg 73%
    18:00 +28°C° 0,3 mm 1 m/s 735 mmHg 80%
    19:00 +26°C° 0,3 mm 1 m/s 736 mmHg 88%
    20:00 +26°C° 0,2 mm 1 m/s 736 mmHg 90%
    21:00 +23°C° 0,2 mm 0 m/s 737 mmHg 92%
    22:00 +23°C° 0,2 mm 0 m/s 737 mmHg 95%
    23:00 +23°C° 0,3 mm 0 m/s 737 mmHg 96%

    21 Décembre, Jeudi

    Heure Température Précipitation Vent Pression Humidité
    00:00 +22°C° 0,3 mm 0 m/s 736 mmHg 96%
    01:00 +22°C° 0,3 mm 0 m/s 736 mmHg 97%
    02:00 +22°C° 0,1 mm 0 m/s 736 mmHg 97%
    03:00 +22°C° 0,1 mm 0 m/s 736 mmHg 98%
    04:00 +22°C° 0,1 mm 0 m/s 736 mmHg 98%
    05:00 +22°C° 0,1 mm 0 m/s 736 mmHg 97%
    06:00 +23°C° 0,1 mm 0 m/s 737 mmHg 96%
    07:00 +23°C° 0,1 mm 0 m/s 738 mmHg 96%
    08:00 +25°C° 0,9 mm 0 m/s 738 mmHg 91%
    09:00 +28°C° 0,9 mm 1 m/s 738 mmHg 86%
    10:00 +29°C° 0,9 mm 1 m/s 738 mmHg 81%
    11:00 +31°C° 0,2 mm 1 m/s 737 mmHg 72%
    12:00 +32°C° 0,2 mm 1 m/s 736 mmHg 64%
    13:00 +35°C° 0,2 mm 2 m/s 735 mmHg 56%
    14:00 +33°C° 0,1 mm 1 m/s 735 mmHg 56%
    15:00 +33°C° 0,1 mm 1 m/s 735 mmHg 56%
    16:00 +33°C° 0,1 mm 1 m/s 734 mmHg 56%
    17:00 +31°C° 0 mm 1 m/s 735 mmHg 63%
    18:00 +29°C° 0 mm 1 m/s 735 mmHg 70%
    19:00 +28°C° 0 mm 1 m/s 736 mmHg 77%
    20:00 +27°C° 0 mm 1 m/s 736 mmHg 81%
    21:00 +24°C° 0 mm 0 m/s 737 mmHg 85%
    22:00 +24°C° 0 mm 0 m/s 737 mmHg 89%
    23:00 +23°C° 0,2 mm 0 m/s 737 mmHg 91%

    22 Décembre, Vendredi

    Heure Température Précipitation Vent Pression Humidité
    00:00 +23°C° 0,2 mm 0 m/s 736 mmHg 93%
    01:00 +22°C° 0,2 mm 0 m/s 736 mmHg 95%
    02:00 +22°C° 1,6 mm 0 m/s 736 mmHg 96%
    03:00 +22°C° 1,6 mm 0 m/s 736 mmHg 97%
    04:00 +22°C° 1,6 mm 0 m/s 736 mmHg 98%
    05:00 +22°C° 0,1 mm 0 m/s 737 mmHg 96%
    06:00 +23°C° 0,1 mm 0 m/s 737 mmHg 95%
    07:00 +23°C° 0,1 mm 0 m/s 738 mmHg 93%
    08:00 +27°C° 0,7 mm 1 m/s 738 mmHg 86%
    09:00 +29°C° 0,7 mm 1 m/s 738 mmHg 79%
    10:00 +30°C° 0,7 mm 2 m/s 738 mmHg 72%
    11:00 +31°C° 0,4 mm 2 m/s 737 mmHg 70%
    12:00 +32°C° 0,4 mm 2 m/s 736 mmHg 68%
    13:00 +34°C° 0,4 mm 2 m/s 735 mmHg 66%
    14:00 +32°C° 0,6 mm 2 m/s 735 mmHg 67%
    15:00 +32°C° 0,6 mm 1 m/s 735 mmHg 67%
    16:00 +31°C° 0,6 mm 1 m/s 734 mmHg 67%
    17:00 +30°C° 0,2 mm 1 m/s 735 mmHg 74%
    18:00 +28°C° 0,2 mm 1 m/s 735 mmHg 81%
    19:00 +26°C° 0,2 mm 1 m/s 736 mmHg 88%
    20:00 +26°C° 0,6 mm 1 m/s 736 mmHg 90%
    21:00 +24°C° 0,6 mm 0 m/s 737 mmHg 93%
    22:00 +23°C° 0,6 mm 0 m/s 737 mmHg 95%
    23:00 +23°C° 0,7 mm 0 m/s 737 mmHg 95%

    23 Décembre, Samedi

    Heure Température Précipitation Vent Pression Humidité
    00:00 +23°C° 0,7 mm 0 m/s 737 mmHg 96%
    01:00 +22°C° 0,7 mm 0 m/s 736 mmHg 96%
    02:00 +22°C° 0 mm 0 m/s 736 mmHg 97%
    03:00 +22°C° 0 mm 0 m/s 736 mmHg 97%
    04:00 +22°C° 0 mm 0 m/s 736 mmHg 97%
    05:00 +22°C° 0 mm 0 m/s 737 mmHg 96%
    06:00 +23°C° 0 mm 0 m/s 737 mmHg 94%
    07:00 +23°C° 0 mm 0 m/s 738 mmHg 93%
    08:00 +28°C° 0 mm 1 m/s 738 mmHg 81%
    09:00 +30°C° 0 mm 2 m/s 738 mmHg 68%
    10:00 +32°C° 0 mm 2 m/s 738 mmHg 56%
    11:00 +34°C° 0 mm 2 m/s 737 mmHg 52%
    12:00 +35°C° 0 mm 2 m/s 736 mmHg 48%
    13:00 +36°C° 0 mm 2 m/s 735 mmHg 44%
    14:00 +35°C° 0 mm 2 m/s 735 mmHg 49%
    15:00 +33°C° 0 mm 1 m/s 734 mmHg 54%
    16:00 +33°C° 0 mm 1 m/s 734 mmHg 59%
    17:00 +31°C° 0,1 mm 1 m/s 734 mmHg 67%
    18:00 +29°C° 0,1 mm 1 m/s 735 mmHg 74%
    19:00 +27°C° 0,1 mm 1 m/s 735 mmHg 82%
    20:00 +27°C° 0,4 mm 1 m/s 735 mmHg 85%
    21:00 +24°C° 0,4 mm 0 m/s 736 mmHg 89%
    22:00 +23°C° 0,4 mm 0 m/s 736 mmHg 92%
    23:00 +23°C° 0,2 mm 0 m/s 736 mmHg 93%
    Voir plus

    XHprof extension not loaded